Weather History for KDUC - November, 2011

Change the Weather History Date:

Wednesday, November 2, 2011

  Actual Average (KLAW) Record (KLAW)
Temperature  
Mean Temperature 56 °F -  
Max Temperature 68 °F 66 °F 86 °F (2012)
Min Temperature 42 °F 42 °F 23 °F (1966)
Degree Days  
Heating Degree Days 9    
Growing Degree Days 6 (Base 50)    
Moisture  
Dew Point 50 °F    
Average Humidity 76    
Maximum Humidity 94    
Minimum Humidity 55    
Precipitation  
Precipitation 0.00 in - - ()
Sea Level Pressure  
Sea Level Pressure 30.01 in    
Wind  
Wind Speed 15 mph (SSW)    
Max Wind Speed 30 mph    
Max Gust Speed 44 mph    
Visibility 10 miles    
Events      
Averages and records for this station are not official NWS values.
T = Trace of Precipitation, MM = Missing Value Source: NWS Daily Summary

Daily Weather History Graph

Daily Weather History Graph

Search for Another Location

Airport or City:

Trip Planner

Search our weather history database for the weather conditions in past years. The results will help you decide how hot, cold, wet, or windy it might be!

Date:

Astronomy

Nov. 02, 2011 Rise Set
Actual Time 7:52 AM CDT 6:37 PM CDT
Civil Twilight 7:26 AM CDT 7:03 PM CDT
Nautical Twilight 6:56 AM CDT 7:33 PM CDT
Astronomical Twilight 6:27 AM CDT 8:02 PM CDT
Moon 2:13 PM CDT (11/2) 12:24 AM CDT (11/2)
Length of Visible Light 11h 36m
Length of Day
10h 44m
Waxing Crescent, 50% of the Moon is Illuminated
Nov 2
Waxing Crescent
Nov 10
Full
Nov 18
Last Quarter
Nov 25
New
Dec 2
First Quarter

Hourly Weather History & Observations

Time (CDT) Temp. Windchill Dew Point Humidity Pressure Visibility Wind Dir Wind Speed Gust Speed Precip Events Conditions
12:15 AM 60.8 °F - 50.0 °F 68% 29.93 in 10.0 mi SSE 12.7 mph 17.3 mph N/A   Clear
12:35 AM 60.8 °F - 50.0 °F 68% 29.93 in 10.0 mi SSE 11.5 mph - N/A   Clear
12:55 AM 60.8 °F - 50.0 °F 68% 29.93 in 10.0 mi SSE 10.4 mph - N/A   Clear
1:15 AM 60.8 °F - 50.0 °F 68% 29.93 in 10.0 mi SSE 10.4 mph - N/A   Clear
1:35 AM 60.8 °F - 50.0 °F 68% 29.93 in 10.0 mi SSE 12.7 mph 17.3 mph N/A   Clear
1:55 AM 60.8 °F - 50.0 °F 68% 29.93 in 10.0 mi SSE 11.5 mph 17.3 mph N/A   Clear
2:15 AM 60.8 °F - 50.0 °F 68% 29.93 in 10.0 mi SSE 13.8 mph - N/A   Clear
2:35 AM 60.8 °F - 50.0 °F 68% 29.94 in 10.0 mi SSE 10.4 mph - N/A   Clear
2:55 AM 60.8 °F - 51.8 °F 72% 29.93 in 10.0 mi SSE 13.8 mph - N/A   Clear
3:15 AM 59.0 °F - 51.8 °F 77% 29.93 in 10.0 mi SSE 12.7 mph - N/A   Clear
3:35 AM 59.0 °F - 51.8 °F 77% 29.93 in 10.0 mi SSE 13.8 mph 18.4 mph N/A   Clear
3:55 AM 59.0 °F - 53.6 °F 82% 29.92 in 10.0 mi SSE 13.8 mph 17.3 mph N/A   Clear
4:55 AM 59.0 °F - 53.6 °F 82% 29.92 in 10.0 mi SSE 12.7 mph - N/A   Clear
5:55 AM 59.0 °F - 55.4 °F 88% 29.92 in 10.0 mi SSE 11.5 mph - N/A   Clear
6:15 AM 59.0 °F - 55.4 °F 88% 29.92 in 10.0 mi SSE 11.5 mph - N/A   Clear
6:35 AM 59.0 °F - 55.4 °F 88% 29.93 in 10.0 mi SSE 10.4 mph - N/A   Mostly Cloudy
6:55 AM 59.0 °F - 55.4 °F 88% 29.92 in 10.0 mi SSE 13.8 mph - N/A   Overcast
7:35 AM 59.0 °F - 55.4 °F 88% 29.92 in 10.0 mi SSE 12.7 mph - N/A   Mostly Cloudy
7:55 AM 59.0 °F - 57.2 °F 94% 29.93 in 10.0 mi SSE 11.5 mph - N/A   Overcast
8:15 AM 59.0 °F - 57.2 °F 94% 29.94 in 10.0 mi SSE 10.4 mph - N/A   Overcast
8:35 AM 60.8 °F - 59.0 °F 94% 29.93 in 10.0 mi South 16.1 mph - N/A   Overcast
8:55 AM 60.8 °F - 59.0 °F 94% 29.94 in 10.0 mi South 16.1 mph - N/A   Overcast
9:35 AM 62.6 °F - 59.0 °F 88% 29.95 in 10.0 mi South 15.0 mph 20.7 mph N/A   Overcast
9:55 AM 62.6 °F - 59.0 °F 88% 29.96 in 10.0 mi South 15.0 mph - N/A   Overcast
10:15 AM 62.6 °F - 59.0 °F 88% 29.97 in 10.0 mi South 15.0 mph - N/A   Overcast
10:35 AM 62.6 °F - 59.0 °F 88% 29.95 in 10.0 mi SSE 12.7 mph 21.9 mph N/A   Overcast
10:55 AM 62.6 °F - 59.0 °F 88% 29.97 in 10.0 mi South 13.8 mph - N/A   Overcast
11:35 AM 62.6 °F - 60.8 °F 94% 29.96 in 10.0 mi South 10.4 mph - N/A   Overcast
11:55 AM 64.4 °F - 60.8 °F 88% 29.95 in 10.0 mi South 13.8 mph - N/A   Overcast
12:15 PM 66.2 °F - 60.8 °F 83% 29.95 in 10.0 mi South 16.1 mph 20.7 mph N/A   Overcast
12:35 PM 68.0 °F - 60.8 °F 78% 29.94 in 10.0 mi South 18.4 mph 21.9 mph N/A   Overcast
12:55 PM 68.0 °F - 60.8 °F 78% 29.93 in 10.0 mi South 17.3 mph - N/A   Overcast
1:15 PM 68.0 °F - 60.8 °F 78% 29.94 in 10.0 mi SSW 15.0 mph - N/A   Overcast
1:35 PM 66.2 °F - 60.8 °F 83% 29.93 in 10.0 mi South 15.0 mph - N/A   Overcast
1:55 PM 68.0 °F - 60.8 °F 78% 29.93 in 10.0 mi SSW 10.4 mph 16.1 mph N/A   Overcast
2:15 PM 68.0 °F - 60.8 °F 78% 29.93 in 10.0 mi WSW 12.7 mph 17.3 mph N/A   Overcast
2:35 PM 62.6 °F - 51.8 °F 68% 29.95 in 10.0 mi NW 23.0 mph 27.6 mph N/A   Overcast
2:55 PM 60.8 °F - 50.0 °F 68% 29.97 in 10.0 mi NW 18.4 mph 21.9 mph N/A   Overcast
3:15 PM 59.0 °F - 46.4 °F 63% 29.99 in 10.0 mi NW 17.3 mph 23.0 mph N/A   Overcast
3:35 PM 59.0 °F - 44.6 °F 59% 30.00 in 10.0 mi NW 17.3 mph 26.5 mph N/A   Overcast
3:55 PM 60.8 °F - 44.6 °F 55% 30.02 in 10.0 mi NW 24.2 mph 32.2 mph N/A   Scattered Clouds
4:15 PM 59.0 °F - 44.6 °F 59% 30.04 in 10.0 mi NW 25.3 mph 32.2 mph N/A   Clear
4:35 PM 55.4 °F - 42.8 °F 63% 30.06 in 10.0 mi NW 23.0 mph 35.7 mph N/A   Clear
4:55 PM 53.6 °F - 42.8 °F 67% 30.08 in 10.0 mi NW 21.9 mph 35.7 mph N/A   Mostly Cloudy
5:15 PM 51.8 °F - 41.0 °F 67% 30.11 in 10.0 mi NW 29.9 mph 39.1 mph N/A   Overcast
5:35 PM 50.0 °F - 41.0 °F 71% 30.12 in 10.0 mi NW 27.6 mph 39.1 mph N/A   Overcast
5:55 PM 50.0 °F - 41.0 °F 71% 30.14 in 10.0 mi NW 27.6 mph 36.8 mph N/A   Overcast
6:15 PM 48.2 °F - 41.0 °F 76% 30.15 in 10.0 mi NW 21.9 mph 32.2 mph N/A   Overcast
6:35 PM 48.2 °F - 39.2 °F 71% 30.17 in 10.0 mi NW 24.2 mph 34.5 mph N/A   Overcast
6:55 PM 46.4 °F 38.5 °F 37.4 °F 71% 30.19 in 10.0 mi NW 21.9 mph 36.8 mph N/A   Overcast
7:15 PM 46.4 °F 38.1 °F 37.4 °F 71% 30.20 in 10.0 mi NW 24.2 mph 33.4 mph N/A   Overcast
7:35 PM 46.4 °F 37.5 °F 37.4 °F 71% 30.22 in 10.0 mi NW 27.6 mph 36.8 mph N/A   Overcast
7:55 PM 44.6 °F 36.1 °F 35.6 °F 71% 30.22 in 10.0 mi NW 21.9 mph 34.5 mph N/A   Overcast
8:15 PM 44.6 °F 35.3 °F 35.6 °F 71% 30.22 in 10.0 mi NNW 26.5 mph 39.1 mph N/A   Overcast
8:35 PM 44.6 °F 34.9 °F 35.6 °F 71% 30.23 in 10.0 mi NNW 28.8 mph 43.7 mph N/A   Overcast
8:55 PM 44.6 °F 36.1 °F 35.6 °F 71% 30.25 in 10.0 mi NNW 21.9 mph 32.2 mph N/A   Mostly Cloudy
9:15 PM 44.6 °F 34.7 °F 33.8 °F 66% 30.25 in 10.0 mi NNW 29.9 mph 38.0 mph N/A   Overcast
9:35 PM 44.6 °F 35.3 °F 33.8 °F 66% 30.26 in 10.0 mi NNW 26.5 mph 36.8 mph N/A   Overcast
9:55 PM 42.8 °F 32.7 °F 33.8 °F 70% 30.28 in 10.0 mi North 27.6 mph 41.4 mph N/A   Overcast
10:15 PM 42.8 °F 33.5 °F 33.8 °F 70% 30.29 in 10.0 mi North 23.0 mph 39.1 mph N/A   Overcast
10:35 PM 42.8 °F 33.3 °F 33.8 °F 70% 30.30 in 10.0 mi NNW 24.2 mph 33.4 mph N/A   Overcast
10:55 PM 42.8 °F 33.8 °F 33.8 °F 70% 30.31 in 10.0 mi North 21.9 mph 33.4 mph N/A   Mostly Cloudy
11:15 PM 42.8 °F 33.3 °F 33.8 °F 70% 30.31 in 10.0 mi NNW 24.2 mph 34.5 mph N/A   Overcast
11:35 PM 42.8 °F 35.1 °F 33.8 °F 70% 30.32 in 10.0 mi North 16.1 mph 29.9 mph N/A   Overcast
11:55 PM 42.8 °F 35.1 °F 33.8 °F 70% 30.33 in 10.0 mi NNW 16.1 mph 24.2 mph N/A   Overcast